Regional Weather Roundup
Issued by NWS Sioux Falls, SD

Home | Current Version | Previous Version | Graphics & Text | Print | Product List | Glossary On
Versions: 1 2 3 4 5 6 7 8 9 10 11 12 13 14 15 16 17 18 19 20 21 22 23 24 25 26 27 28 29 30 31 32 33 34 35 36 37 38 39 40 41 42 43 44 45 46 47 48 49 50
000
ASUS43 KFSD 240110
RWRFSD

WEATHER ROUNDUP FOR SE SOUTH DAKOTA/SW MINNESOTA/NW IOWA
NATIONAL WEATHER SERVICE SIOUX FALLS SD
800 PM CDT MON APR 23 2018

NOTE: "FAIR" INDICATES FEW OR NO CLOUDS BELOW 12,000 FEET WITH NO
SIGNIFICANT WEATHER AND OR OBSTRUCTIONS TO VISIBILITY.


SDZ038>040-050-052>070-240200-
SOUTHEAST SOUTH DAKOTA

CITY           SKY/WX    TMP DP  RH WIND       PRES   REMARKS
BROOKINGS      CLOUDY    60  42  51 SE13      30.12S
CHAMBERLAIN    CLOUDY    64  43  45 E7        30.06S
HURON          CLOUDY    63  40  42 SE6       30.08R
MADISON        CLOUDY    59  48  67 E6        30.11S
MITCHELL       MOCLDY    63  46  54 SE7       30.08S
SIOUX FALLS    MOCLDY    61  39  44 E8        30.10S
WINNER         MOCLDY    63  41  44 SE9       30.05R
YANKTON        CLEAR     65  38  36 NE6       30.07F
$$

MNZ071-072-080-081-089-090-097-098-240200-
SOUTHWEST MINNESOTA

CITY           SKY/WX    TMP DP  RH WIND       PRES   REMARKS
FAIRMONT       CLEAR     58  43  57 NW3       30.14S
JACKSON        CLEAR     54  41  62 SE5       30.15R
LUVERNE        CLEAR     59  43  55 E7        30.12S
MARSHALL       CLEAR     62  41  46 S6        30.13S
MONTEVIDEO     CLEAR     63  37  39 CALM      30.12S
PIPESTONE      CLEAR    N/A N/A N/A SE7       30.13S
REDWOOD FALLS  CLEAR     62  42  47 S5        30.12S
TRACY          CLEAR     60  42  50 CALM      30.13S
WINDOM         CLEAR     57  37  47 CALM      30.14S
WORTHINGTON      N/A     56  47  71 E5        30.14S
$$

IAZ001>003-012>014-020>022-031-032-NEZ013-014-SDZ071-240200-
NORTHWEST IOWA

CITY           SKY/WX    TMP DP  RH WIND       PRES   REMARKS
CHEROKEE       CLEAR     61  41  48 NE7       30.11S
DENISON        CLEAR     64  34  32 E6        30.09S
ESTHERVILLE    CLEAR     55  48  77 CALM      30.13F
LE MARS        CLEAR     64  36  34 E13       30.09S
ORANGE CITY    CLEAR     63  39  42 E7        30.11S
SHELDON        CLEAR     59  41  51 E9        30.11R
SIOUX CITY     CLEAR     65  38  36 E12       30.07S
SPENCER        CLEAR     57  42  57 E7        30.13S
STORM LAKE     CLEAR     59  41  51 NE10      30.11S
$$

ABBREVIATIONS USED IN REMARKS
   TC - TEMPERATURE IN CELSIUS
  WCI - WIND CHILL INDEX
   HX - HEAT INDEX
  VSB - VISIBILITY




USA.gov is the U.S. government's official web portal to all federal, state and local government web resources and services.